Regional Weather Roundup
Issued by NWS

Home | Current Version | Previous Version | Graphics & Text | Print | Product List | Glossary On
Versions: 1 2 3 4 5 6 7 8 9 10 11 12 13 14 15 16 17 18 19 20 21 22 23 24 25 26 27 28 29 30 31 32 33 34 35 36 37 38 39 40 41 42 43 44 45 46 47 48 49 50
906
ASUS43 KTOP 291059
RWRKS

WEATHER ROUNDUP FOR KANSAS
NATIONAL WEATHER SERVICE GOODLAND KS
600 AM CDT THU SEP 29 2016

NOTE:  "FAIR" INDICATES FEW OR NO CLOUDS BELOW 12,000 FEET WITH NO
SIGNIFICANT WEATHER AND/OR OBSTRUCTIONS TO VISIBILITY.

KSZ001>006-013>018-027>032-041>047-291200-
NORTHWEST KANSAS

CITY           SKY/WX    TMP DP  RH WIND       PRES   REMARKS
GOODLAND       CLEAR     43  38  82 S7        30.40R
HAYS           CLOUDY    45  34  65 NW5       30.40R
HILL CITY      CLOUDY    41  39  93 W3        30.41R
RUSSELL        CLOUDY    44  42  93 NW5       30.39R
$$

KSZ061>065-074>080-084>089-291200-
SOUTHWEST KANSAS

CITY           SKY/WX    TMP DP  RH WIND       PRES   REMARKS
DODGE CITY     CLOUDY    42  38  85 CALM      30.40R
ELKHART          N/A     48  35  60 SE7         N/A
GARDEN CITY    CLOUDY    44  38  79 N3        30.39R
GREAT BEND     CLOUDY    45  36  70 NW5       30.40R
LIBERAL        CLOUDY    48  32  53 E5        30.39R
$$

KSZ066>073-081>083-090>101-291200-
SOUTHEAST KANSAS

CITY           SKY/WX    TMP DP  RH WIND       PRES   REMARKS
CHANUTE        CLEAR     49  46  90 NW6       30.31R
COFFEYVILLE    CLEAR     48  46  93 N6        30.31R
HUTCHINSON     CLEAR     46  44  93 NW6       30.37R
MEDICINE LODGE   N/A     46  44  93 NW3       30.37R
NEWTON           N/A     46  45  96 N7        30.36R
PARSONS        CLEAR     46  43  89 CALM      30.32R
WICHITA INTL   PTCLDY    49  46  90 NW6       30.34R
WICHITA JABRA  CLEAR     46  45  96 N8        30.34R
WINFIELD       CLEAR     46  45  96 N3        30.34R
$$

KSZ007>012-019>026-033>040-048>060-102>105-291200-
NORTHEAST KANSAS

CITY           SKY/WX    TMP DP  RH WIND       PRES   REMARKS
CONCORDIA      CLOUDY    46  45  96 CALM      30.39R
EMPORIA        CLEAR     47  46  97 W5        30.34R
LAWRENCE       CLEAR     47  47 100 W6        30.33R
MANHATTAN      CLEAR     47  45  93 NW5       30.37R
OLATHE IND     CLEAR     48  47  96 NW6       30.33R
OLATHE EXE     CLEAR     49  46  90 NW7       30.31R
SALINA         CLEAR     47  43  86 NW7       30.38R
TOPEKA BILLARD CLEAR     50  46  86 W3        30.34R
TOPEKA FORBES  CLEAR     48  45  89 N7        30.34R
$$




USA.gov is the U.S. government's official web portal to all federal, state and local government web resources and services.